Weather History for Melbourne Airport, VC

Change the Weather History Date:

Thursday, July 18, 2013

  Actual Average Record
Temperature  
Mean Temperature 62 °F -  
Max Temperature 69 °F 54 °F 69 °F (2013)
Min Temperature 56 °F 41 °F 37 °F (1998)
Degree Days  
Heating Degree Days 2    
Growing Degree Days 12 (Base 50)    
Moisture  
Dew Point 53 °F    
Average Humidity 75    
Maximum Humidity 94    
Minimum Humidity 47    
Precipitation  
Precipitation 0.31 in 0.06 in - ()
Sea Level Pressure  
Sea Level Pressure 29.76 in    
Wind  
Wind Speed 24 mph ()    
Max Wind Speed 47 mph    
Max Gust Speed 50 mph    
Visibility 6.5 miles    
Events Rain , Thunderstorm    
Averages and records for this station are not official NWS values.
T = Trace of Precipitation, MM = Missing Value Source: Averaged Metar Reports

Daily Weather History Graph

Daily Weather History Graph

Search for Another Location

Airport:

Trip Planner

Search our weather history database for the weather conditions in past years. The results will help you decide how hot, cold, wet, or windy it might be!

Date:

Astronomy

Jul. 18, 2013 Rise Set
Actual Time 7:31 AM AEST 5:22 PM AEST
Civil Twilight 7:02 AM AEST 5:51 PM AEST
Nautical Twilight 6:30 AM AEST 6:23 PM AEST
Astronomical Twilight 5:59 AM AEST 6:55 PM AEST
Moon 12:57 PM AEST (7/18) 2:19 AM AEST (7/18)
Length of Visible Light 10h 48m
Length of Day
9h 51m
Waxing Gibbous, 71% of the Moon is Illuminated
Jul 18
Waxing Gibbous
Jul 23
Full
Jul 30
Last Quarter
Aug 7
New
Aug 14
First Quarter

Hourly Weather History & Observations

Time (AEST) Temp. Dew Point Humidity Pressure Visibility Wind Dir Wind Speed Gust Speed Precip Events Conditions
12:00 AM 58 °F 53 °F 79% 29.98 in 25 mi North 47.0 mph - -   Partly Cloudy
12:00 AM 57.2 °F 53.6 °F 88% 29.98 in 6.2 mi North 24.2 mph - N/A   Mostly Cloudy
12:30 AM 59.0 °F 53.6 °F 82% 29.95 in 6.2 mi North 27.6 mph - N/A   Mostly Cloudy
1:00 AM 57.2 °F 53.6 °F 88% 29.92 in 6.2 mi North 23.0 mph - N/A   Mostly Cloudy
1:30 AM 57.2 °F 53.6 °F 88% 29.92 in 6.2 mi North 18.4 mph - N/A   Mostly Cloudy
2:00 AM 57.2 °F 53.6 °F 88% 29.92 in 6.2 mi North 6.9 mph - N/A   Mostly Cloudy
2:19 AM 60.8 °F 53.6 °F 77% 29.92 in 6.2 mi North 21.9 mph - N/A   Mostly Cloudy
2:30 AM 59.0 °F 53.6 °F 82% 29.89 in 6.2 mi North 17.3 mph - N/A   Mostly Cloudy
3:00 AM 59 °F 53 °F 76% 29.91 in 25 mi North 24.2 mph - -   Partly Cloudy
3:00 AM 59.0 °F 53.6 °F 82% 29.89 in 6.2 mi North 24.2 mph - N/A   Mostly Cloudy
3:30 AM 59.0 °F 53.6 °F 82% 29.89 in 6.2 mi North 18.4 mph - N/A   Mostly Cloudy
4:00 AM 59 °F 53 °F 74% 29.89 in - North 20.7 mph - -  
4:00 AM 59.0 °F 53.6 °F 82% 29.89 in 6.2 mi North 20.7 mph - N/A   Mostly Cloudy
4:30 AM 59.0 °F 53.6 °F 82% 29.86 in 6.2 mi North 23.0 mph - N/A   Mostly Cloudy
5:00 AM 59.0 °F 51.8 °F 77% 29.86 in 6.2 mi North 25.3 mph - N/A   Mostly Cloudy
5:30 AM 59.0 °F 51.8 °F 77% 29.86 in 6.2 mi North 29.9 mph - N/A   Mostly Cloudy
6:00 AM 60 °F 52 °F 67% 29.89 in 25 mi North 29.9 mph - -   Partly Cloudy
6:00 AM 59.0 °F 51.8 °F 77% 29.86 in 6.2 mi North 29.9 mph - N/A   Mostly Cloudy
6:30 AM 59.0 °F 51.8 °F 77% 29.89 in 6.2 mi North 24.2 mph - N/A   Mostly Cloudy
7:00 AM 60 °F 51 °F 65% 29.89 in - North 25.3 mph - -  
7:00 AM 60.8 °F 51.8 °F 72% 29.86 in - North 25.3 mph - N/A   Unknown
7:21 AM 60.8 °F 51.8 °F 72% 29.86 in - North 23.0 mph 35.7 mph N/A   Unknown
7:30 AM 60.8 °F 51.8 °F 72% 29.89 in 6.2 mi North 26.5 mph - N/A   Mostly Cloudy
7:50 AM 59.0 °F 51.8 °F 77% 29.86 in 6.2 mi North 23.0 mph 34.5 mph N/A   Mostly Cloudy
8:00 AM 60.8 °F 51.8 °F 72% 29.86 in 6.2 mi North 26.5 mph - N/A   Mostly Cloudy
8:23 AM 60.8 °F 51.8 °F 72% 29.86 in 6.2 mi North 23.0 mph 34.5 mph N/A   Mostly Cloudy
8:30 AM 60.8 °F 51.8 °F 72% 29.86 in 6.2 mi North 21.9 mph 33.4 mph N/A Rain Light Rain Showers
9:00 AM 62 °F 52 °F 62% 29.89 in 19 mi North 17.3 mph - -   Partly Cloudy
9:00 AM 60.8 °F 51.8 °F 72% 29.86 in 6.2 mi North 17.3 mph - N/A   Mostly Cloudy
9:30 AM 60.8 °F 51.8 °F 72% 29.86 in 6.2 mi North 23.0 mph - N/A   Mostly Cloudy
9:40 AM 60.8 °F 51.8 °F 72% 29.83 in 6.2 mi North 24.2 mph 35.7 mph N/A   Mostly Cloudy
10:00 AM 64.4 °F 51.8 °F 64% 29.86 in 6.2 mi North 23.0 mph - N/A   Mostly Cloudy
10:30 AM 64.4 °F 51.8 °F 64% 29.83 in 6.2 mi North 23.0 mph - N/A   Mostly Cloudy
10:40 AM 64.4 °F 51.8 °F 64% 29.83 in 6.2 mi North 26.5 mph 39.1 mph N/A   Mostly Cloudy
11:00 AM 64.4 °F 51.8 °F 64% 29.80 in 6.2 mi North 27.6 mph - N/A   Scattered Clouds
11:30 AM 64.4 °F 51.8 °F 64% 29.80 in 6.2 mi North 31.1 mph 42.6 mph N/A   Scattered Clouds
12:00 PM 66.2 °F 51.8 °F 60% 29.77 in 6.2 mi North 32.2 mph 44.9 mph N/A   Scattered Clouds
12:30 PM 66.2 °F 51.8 °F 60% 29.74 in 6.2 mi North 34.5 mph 46.0 mph N/A   Scattered Clouds
1:00 PM 68 °F 52 °F 47% 29.73 in - North 31.1 mph - -  
1:00 PM 68.0 °F 51.8 °F 56% 29.71 in 6.2 mi North 31.1 mph 43.7 mph N/A   Scattered Clouds
1:30 PM 69.8 °F 51.8 °F 53% 29.68 in 6.2 mi North 33.4 mph 44.9 mph N/A   Scattered Clouds
2:00 PM 69.8 °F 51.8 °F 53% 29.65 in 6.2 mi North 28.8 mph 43.7 mph N/A   Scattered Clouds
2:30 PM 69.8 °F 53.6 °F 56% 29.68 in 6.2 mi North 28.8 mph 42.6 mph N/A   Mostly Cloudy
3:00 PM 67 °F 53 °F 52% 29.71 in 9 mi North 23.0 mph - - Rain Light Rain
3:00 PM 68.0 °F 53.6 °F 60% 29.68 in 6.2 mi North 23.0 mph - N/A Rain Light Rain
3:03 PM 68.0 °F 53.6 °F 60% 29.68 in - North 23.0 mph 34.5 mph N/A   Unknown
3:09 PM 66.2 °F 53.6 °F 64% 29.68 in 6.2 mi North 21.9 mph 34.5 mph N/A Rain Light Rain
3:24 PM 60.8 °F 55.4 °F 82% 29.74 in 3.7 mi NW 24.2 mph 49.5 mph N/A Rain , Thunderstorm Thunderstorms and Rain
3:25 PM 59.0 °F 55.4 °F 88% 29.74 in 3.1 mi NW 25.3 mph 49.5 mph N/A Rain , Thunderstorm Thunderstorms and Rain
3:30 PM 57.2 °F 53.6 °F 88% 29.74 in 1.4 mi NW 26.5 mph 49.5 mph N/A Rain , Thunderstorm Light Thunderstorms and Rain
3:37 PM 57.2 °F 53.6 °F 88% 29.71 in 1.5 mi North 25.3 mph - N/A Rain , Thunderstorm Thunderstorms and Rain
4:00 PM 56 °F 54 °F 93% 29.73 in - North 18.4 mph - -  
4:00 PM 57.2 °F 55.4 °F 94% 29.71 in 4.3 mi North 18.4 mph - N/A Thunderstorm Thunderstorm
4:17 PM 57.2 °F 55.4 °F 94% 29.71 in 3.7 mi North 19.6 mph 33.4 mph N/A Rain , Thunderstorm Light Thunderstorms and Rain
4:30 PM 59.0 °F 55.4 °F 88% 29.65 in 4.3 mi North 23.0 mph - N/A Rain , Thunderstorm Light Thunderstorms and Rain
4:39 PM 59.0 °F 55.4 °F 88% 29.65 in 6.2 mi NNE 24.2 mph - N/A   Mostly Cloudy
5:00 PM 60.8 °F 55.4 °F 82% 29.62 in 6.2 mi North 26.5 mph - N/A   Mostly Cloudy
5:01 PM 60.8 °F 55.4 °F 82% 29.65 in 6.2 mi North 25.3 mph 36.8 mph N/A   Mostly Cloudy
5:30 PM 60.8 °F 55.4 °F 82% 29.62 in 6.2 mi North 29.9 mph - N/A   Mostly Cloudy
5:52 PM 60.8 °F 55.4 °F 82% 29.62 in 6.2 mi North 26.5 mph 38.0 mph N/A   Mostly Cloudy
6:00 PM 61 °F 55 °F 75% 29.64 in 16 mi North 28.8 mph - -   Partly Cloudy
6:00 PM 60.8 °F 55.4 °F 82% 29.62 in 6.2 mi North 28.8 mph - N/A   Mostly Cloudy
6:40 PM 60.8 °F 55.4 °F 82% 29.62 in 6.2 mi North 31.1 mph 42.6 mph N/A   Mostly Cloudy
7:00 PM 60 °F 55 °F 77% 29.63 in - North 32.2 mph - -  
7:00 PM 60.8 °F 55.4 °F 82% 29.62 in 6.2 mi North 32.2 mph - N/A   Mostly Cloudy
7:21 PM 60.8 °F 55.4 °F 82% 29.62 in 6.2 mi North 32.2 mph 43.7 mph N/A   Mostly Cloudy
7:30 PM 60.8 °F 53.6 °F 77% 29.62 in 6.2 mi North 29.9 mph - N/A   Mostly Cloudy
8:00 PM 60.8 °F 53.6 °F 77% 29.62 in 6.2 mi North 29.9 mph - N/A   Scattered Clouds
8:30 PM 59.0 °F 53.6 °F 82% 29.62 in 6.2 mi North 25.3 mph - N/A   Scattered Clouds
9:00 PM 59 °F 53 °F 73% 29.65 in 19 mi North 20.7 mph - -   Partly Cloudy
9:00 PM 59.0 °F 53.6 °F 82% 29.62 in 6.2 mi North 20.7 mph - N/A   Scattered Clouds
9:06 PM 60.8 °F 51.8 °F 72% 29.62 in - North 21.9 mph 36.8 mph N/A   Unknown
9:30 PM 60.8 °F 51.8 °F 72% 29.62 in 6.2 mi North 23.0 mph 34.5 mph N/A   Scattered Clouds
10:00 PM 60 °F 53 °F 71% 29.66 in - North 20.7 mph - -  
10:00 PM 59.0 °F 53.6 °F 82% 29.65 in 6.2 mi North 20.7 mph - N/A   Mostly Cloudy
10:13 PM 59.0 °F 53.6 °F 82% 29.65 in 6.2 mi North 18.4 mph 29.9 mph N/A   Scattered Clouds
10:30 PM 59.0 °F 53.6 °F 82% 29.65 in 6.2 mi North 16.1 mph - N/A   Partly Cloudy
11:00 PM 60.8 °F 53.6 °F 77% 29.62 in 6.2 mi North 21.9 mph 34.5 mph N/A   Mostly Cloudy
11:30 PM 60.8 °F 53.6 °F 77% 29.62 in 6.2 mi North 21.9 mph - N/A   Scattered Clouds